• In Hungary
  • List of Countries
  • For 7 days
  • Water Temperature
  • Satellite Maps
  • Weather Map
  • News
  • Weather Widgets
  • user-avatar
    Login

    Hourly Weather Wysoka

    Today, 23 October, Tuesday

    Time Temperature Precipitation Wind Pressure Humidity
    00:00 +5°C° 0 mm 4 mps 744 mmHg 85%
    01:00 +4°C° 0 mm 3 mps 744 mmHg 88%
    02:00 +4°C° 0 mm 3 mps 744 mmHg 90%
    03:00 +3°C° 0 mm 3 mps 743 mmHg 91%
    04:00 +3°C° 0 mm 3 mps 743 mmHg 92%
    05:00 +3°C° 0 mm 3 mps 742 mmHg 89%
    06:00 +3°C° 0 mm 4 mps 741 mmHg 86%
    07:00 +3°C° 0 mm 5 mps 741 mmHg 82%
    08:00 +4°C° 0 mm 6 mps 740 mmHg 76%
    09:00 +5°C° 0 mm 7 mps 739 mmHg 69%
    10:00 +6°C° 0 mm 7 mps 738 mmHg 62%
    11:00 +6°C° 0.3 mm 8 mps 737 mmHg 62%
    12:00 +7°C° 0.3 mm 8 mps 735 mmHg 62%
    13:00 +7°C° 0.3 mm 9 mps 734 mmHg 62%
    14:00 +6°C° 1.4 mm 9 mps 733 mmHg 67%
    15:00 +6°C° 1.4 mm 9 mps 732 mmHg 73%
    16:00 +6°C° 1.4 mm 9 mps 731 mmHg 78%
    17:00 +6°C° 0.8 mm 10 mps 730 mmHg 78%
    18:00 +7°C° 0.8 mm 10 mps 729 mmHg 79%
    19:00 +7°C° 0.8 mm 10 mps 729 mmHg 79%
    20:00 +8°C° 1.2 mm 10 mps 728 mmHg 80%
    21:00 +8°C° 1.2 mm 11 mps 728 mmHg 81%
    22:00 +8°C° 1.2 mm 11 mps 727 mmHg 81%
    23:00 +8°C° 0.9 mm 10 mps 727 mmHg 80%

    Tomorrow, 24 October, Wednesday

    Time Temperature Precipitation Wind Pressure Humidity
    00:00 +7°C° 0.9 mm 10 mps 726 mmHg 79%
    01:00 +7°C° 0.9 mm 9 mps 726 mmHg 77%
    02:00 +6°C° 0.2 mm 9 mps 726 mmHg 75%
    03:00 +6°C° 0.2 mm 10 mps 726 mmHg 73%
    04:00 +6°C° 0.2 mm 10 mps 726 mmHg 71%
    05:00 +5°C° 0.1 mm 10 mps 727 mmHg 69%
    06:00 +3°C° 0.1 mm 10 mps 727 mmHg 68%
    07:00 +3°C° 0.1 mm 10 mps 728 mmHg 66%
    08:00 +3°C° 0.1 mm 10 mps 728 mmHg 62%
    09:00 +5°C° 0.1 mm 10 mps 729 mmHg 57%
    10:00 +4°C° 0.1 mm 11 mps 730 mmHg 53%
    11:00 +4°C° 0.1 mm 11 mps 730 mmHg 51%
    12:00 +6°C° 0.1 mm 11 mps 731 mmHg 48%
    13:00 +6°C° 0.1 mm 11 mps 731 mmHg 46%
    14:00 +6°C° 0 mm 10 mps 732 mmHg 46%
    15:00 +5°C° 0 mm 9 mps 732 mmHg 46%
    16:00 +5°C° 0 mm 8 mps 733 mmHg 46%
    17:00 +5°C° 0 mm 7 mps 733 mmHg 48%
    18:00 +4°C° 0 mm 7 mps 734 mmHg 50%
    19:00 +3°C° 0 mm 7 mps 735 mmHg 52%
    20:00 +3°C° 0 mm 6 mps 735 mmHg 55%
    21:00 +3°C° 0 mm 6 mps 736 mmHg 58%
    22:00 +2°C° 0 mm 6 mps 736 mmHg 61%
    23:00 +2°C° 0 mm 5 mps 736 mmHg 65%

    Day after tomorrow, 25 October, Thursday

    Time Temperature Precipitation Wind Pressure Humidity
    00:00 +2°C° 0 mm 5 mps 736 mmHg 68%
    01:00 +2°C° 0 mm 5 mps 736 mmHg 71%
    02:00 +2°C° 0 mm 5 mps 736 mmHg 73%
    03:00 +1°C° 0 mm 5 mps 735 mmHg 75%
    04:00 +1°C° 0 mm 4 mps 735 mmHg 76%
    05:00 +3°C° 0.5 mm 4 mps 734 mmHg 79%
    06:00 +3°C° 0.5 mm 4 mps 734 mmHg 82%
    07:00 +4°C° 0.5 mm 4 mps 733 mmHg 85%
    08:00 +4°C° 0.9 mm 6 mps 733 mmHg 85%
    09:00 +6°C° 0.9 mm 7 mps 732 mmHg 85%
    10:00 +7°C° 0.9 mm 8 mps 732 mmHg 86%
    11:00 +9°C° 0.4 mm 8 mps 731 mmHg 85%
    12:00 +9°C° 0.4 mm 8 mps 731 mmHg 84%
    13:00 +8°C° 0.4 mm 9 mps 731 mmHg 83%
    14:00 +8°C° 0.1 mm 9 mps 731 mmHg 83%
    15:00 +9°C° 0.1 mm 8 mps 731 mmHg 82%
    16:00 +9°C° 0.1 mm 8 mps 731 mmHg 82%
    17:00 +9°C° 0.2 mm 8 mps 731 mmHg 83%
    18:00 +9°C° 0.2 mm 8 mps 731 mmHg 83%
    19:00 +9°C° 0.2 mm 7 mps 732 mmHg 84%
    20:00 +9°C° 0.3 mm 7 mps 732 mmHg 84%
    21:00 +8°C° 0.3 mm 6 mps 732 mmHg 84%
    22:00 +8°C° 0.3 mm 5 mps 733 mmHg 84%
    23:00 +8°C° 0.1 mm 5 mps 733 mmHg 84%

    26 October, Friday

    Time Temperature Precipitation Wind Pressure Humidity
    00:00 +7°C° 0.1 mm 4 mps 733 mmHg 85%
    01:00 +7°C° 0.1 mm 4 mps 733 mmHg 85%
    02:00 +7°C° 0 mm 4 mps 733 mmHg 86%
    03:00 +6°C° 0 mm 4 mps 733 mmHg 86%
    04:00 +6°C° 0 mm 4 mps 733 mmHg 86%
    05:00 +6°C° 0 mm 4 mps 733 mmHg 87%
    06:00 +5°C° 0 mm 3 mps 733 mmHg 88%
    07:00 +5°C° 0 mm 3 mps 733 mmHg 89%
    08:00 +7°C° 0 mm 3 mps 733 mmHg 87%
    09:00 +8°C° 0 mm 3 mps 732 mmHg 84%
    10:00 +8°C° 0 mm 4 mps 732 mmHg 82%
    11:00 +10°C° 0 mm 4 mps 732 mmHg 77%
    12:00 +12°C° 0 mm 5 mps 731 mmHg 72%
    13:00 +13°C° 0 mm 5 mps 731 mmHg 66%
    14:00 +12°C° 0 mm 5 mps 730 mmHg 68%
    15:00 +12°C° 0 mm 5 mps 730 mmHg 69%
    16:00 +10°C° 0 mm 5 mps 729 mmHg 70%
    17:00 +9°C° 0 mm 5 mps 729 mmHg 72%
    18:00 +9°C° 0 mm 5 mps 729 mmHg 74%
    19:00 +8°C° 0 mm 5 mps 729 mmHg 76%
    20:00 +8°C° 0 mm 5 mps 729 mmHg 76%
    21:00 +8°C° 0 mm 5 mps 729 mmHg 76%
    22:00 +7°C° 0 mm 5 mps 729 mmHg 75%
    23:00 +7°C° 0 mm 5 mps 729 mmHg 75%

    27 October, Saturday

    Time Temperature Precipitation Wind Pressure Humidity
    00:00 +7°C° 0 mm 6 mps 729 mmHg 74%
    01:00 +7°C° 0 mm 6 mps 729 mmHg 74%
    02:00 +5°C° 0 mm 6 mps 730 mmHg 73%
    03:00 +6°C° 0 mm 5 mps 730 mmHg 73%
    04:00 +5°C° 0 mm 5 mps 730 mmHg 73%
    05:00 +5°C° 0 mm 5 mps 730 mmHg 72%
    06:00 +3°C° 0 mm 5 mps 731 mmHg 71%
    07:00 +3°C° 0 mm 5 mps 731 mmHg 70%
    08:00 +5°C° 0 mm 5 mps 731 mmHg 68%
    09:00 +5°C° 0 mm 5 mps 731 mmHg 65%
    10:00 +5°C° 0 mm 6 mps 732 mmHg 63%
    11:00 +6°C° 0 mm 5 mps 732 mmHg 61%
    12:00 +7°C° 0 mm 5 mps 732 mmHg 59%
    13:00 +7°C° 0 mm 4 mps 732 mmHg 56%
    14:00 +8°C° 0 mm 3 mps 732 mmHg 57%
    15:00 +8°C° 0 mm 3 mps 732 mmHg 59%
    16:00 +7°C° 0 mm 2 mps 732 mmHg 60%
    17:00 +8°C° 0 mm 1 mps 733 mmHg 61%
    18:00 +8°C° 0 mm 1 mps 733 mmHg 63%
    19:00 +7°C° 0 mm 1 mps 734 mmHg 64%
    20:00 +7°C° 0 mm 1 mps 734 mmHg 65%
    21:00 +6°C° 0 mm 0 mps 734 mmHg 66%
    22:00 +6°C° 0 mm 0 mps 734 mmHg 66%
    23:00 +7°C° 0 mm 1 mps 734 mmHg 68%

    28 October, Sunday

    Time Temperature Precipitation Wind Pressure Humidity
    00:00 +7°C° 0 mm 1 mps 734 mmHg 69%
    01:00 +7°C° 0 mm 1 mps 734 mmHg 70%
    02:00 +5°C° 0.1 mm 2 mps 734 mmHg 71%
    03:00 +5°C° 0.1 mm 2 mps 734 mmHg 73%
    04:00 +4°C° 0.1 mm 3 mps 734 mmHg 74%
    05:00 +4°C° 0.2 mm 3 mps 734 mmHg 76%
    06:00 +4°C° 0.2 mm 3 mps 734 mmHg 77%
    07:00 +4°C° 0.2 mm 3 mps 734 mmHg 79%
    08:00 +4°C° 0.7 mm 4 mps 734 mmHg 78%
    09:00 +3°C° 0.7 mm 5 mps 734 mmHg 78%
    10:00 +3°C° 0.7 mm 5 mps 734 mmHg 78%
    11:00 +3°C° 1.4 mm 6 mps 733 mmHg 79%
    12:00 +3°C° 1.4 mm 6 mps 733 mmHg 79%
    13:00 +3°C° 1.4 mm 7 mps 732 mmHg 79%
    14:00 +2°C° 1.7 mm 7 mps 732 mmHg 81%
    15:00 +2°C° 1.7 mm 7 mps 732 mmHg 82%
    16:00 +2°C° 1.7 mm 7 mps 732 mmHg 83%
    17:00 +2°C° 0.7 mm 7 mps 732 mmHg 84%
    18:00 +2°C° 0.7 mm 7 mps 732 mmHg 85%
    19:00 +2°C° 0.7 mm 7 mps 732 mmHg 85%
    20:00 +2°C° 1 mm 7 mps 731 mmHg 86%
    21:00 +2°C° 1 mm 6 mps 731 mmHg 87%
    22:00 +2°C° 1 mm 6 mps 731 mmHg 88%
    23:00 +2°C° 2.8 mm 6 mps 730 mmHg 89%

    29 October, Monday

    Time Temperature Precipitation Wind Pressure Humidity
    00:00 +2°C° 2.8 mm 6 mps 730 mmHg 90%
    01:00 +2°C° 2.8 mm 6 mps 729 mmHg 91%
    02:00 +2°C° 1.4 mm 6 mps 729 mmHg 91%
    03:00 +2°C° 1.4 mm 6 mps 728 mmHg 91%
    04:00 +3°C° 1.4 mm 6 mps 728 mmHg 91%
    05:00 +3°C° 1.1 mm 6 mps 727 mmHg 91%
    06:00 +3°C° 1.1 mm 6 mps 727 mmHg 91%
    07:00 +3°C° 1.1 mm 6 mps 727 mmHg 92%
    08:00 +3°C° 1.6 mm 5 mps 727 mmHg 92%
    09:00 +3°C° 1.6 mm 5 mps 727 mmHg 92%
    10:00 +3°C° 1.6 mm 5 mps 727 mmHg 93%
    11:00 +3°C° 1.3 mm 5 mps 726 mmHg 93%
    12:00 +4°C° 1.3 mm 4 mps 726 mmHg 93%
    13:00 +5°C° 1.3 mm 4 mps 726 mmHg 93%
    14:00 +5°C° 0.3 mm 4 mps 726 mmHg 93%
    15:00 +5°C° 0.3 mm 3 mps 726 mmHg 94%
    16:00 +5°C° 0.3 mm 3 mps 726 mmHg 94%
    17:00 +5°C° 0.1 mm 3 mps 726 mmHg 95%
    18:00 +6°C° 0.1 mm 2 mps 726 mmHg 95%
    19:00 +7°C° 0.1 mm 2 mps 726 mmHg 96%
    20:00 +7°C° 0 mm 2 mps 726 mmHg 96%
    21:00 +7°C° 0 mm 2 mps 726 mmHg 95%
    22:00 +7°C° 0 mm 2 mps 726 mmHg 95%
    23:00 +8°C° 0 mm 2 mps 726 mmHg 95%
    Show more